| time (UTC) | temp F | wind direction | speed MPH | gust MPH | rain 1hr in | rain 24hr in | rain mn in | humidity % | barometer mb |
| 20260901155033 | 70 | 107 | 0.0 | 0.0 | 0.19 | 1.11 | 1.11 | 98 | 1019.4 |
| 20260901154533 | 70 | 116 | 0.0 | 0.0 | 0.17 | 1.10 | 1.10 | 98 | 1019.3 |
| 20260901154028 | 70 | 115 | 0.0 | 0.0 | 0.12 | 1.08 | 1.08 | 98 | 1019.5 |
| 20260901153523 | 70 | 115 | 0.0 | 0.0 | 0.12 | 1.07 | 1.07 | 98 | 1019.5 |
| 20260901153022 | 70 | 104 | 0.0 | 0.0 | 0.05 | 1.06 | 1.06 | 98 | 1019.6 |
| 20260901152517 | 70 | 114 | 0.0 | 0.0 | 0.07 | 1.05 | 1.05 | 98 | 1019.7 |
| 20260901152016 | 70 | 114 | 0.0 | 0.0 | 0.12 | 1.05 | 1.05 | 98 | 1020.0 |
| 20260901151512 | 70 | 106 | 0.0 | 0.0 | 0.05 | 1.04 | 1.04 | 98 | 1019.6 |
| 20260901151011 | 70 | 134 | 0.0 | 1.0 | 0.00 | 1.03 | 1.03 | 98 | 1019.4 |
| 20260901150509 | 70 | 137 | 0.0 | 1.0 | 0.00 | 1.03 | 1.03 | 98 | 1019.5 |
| 20260901150007 | 70 | 115 | 0.0 | 0.0 | 0.00 | 1.03 | 1.03 | 98 | 1019.2 |
| 20260901145501 | 70 | 119 | 0.0 | 1.0 | 0.07 | 1.03 | 1.03 | 98 | 1019.5 |
| 20260901145001 | 70 | 112 | 0.0 | 0.0 | 0.07 | 1.03 | 1.03 | 98 | 1019.6 |
| 20260901144456 | 70 | 112 | 0.0 | 0.0 | 0.07 | 1.02 | 1.02 | 98 | 1019.8 |
| 20260901143951 | 69 | 121 | 0.0 | 0.0 | 0.12 | 1.01 | 1.01 | 98 | 1019.5 |
| 20260901143448 | 69 | 114 | 0.0 | 0.0 | 0.17 | 1.01 | 1.01 | 98 | 1019.8 |
| 20260901142944 | 69 | 84 | 0.0 | 0.0 | 0.05 | 0.99 | 0.99 | 98 | 1019.4 |
| 20260901142443 | 69 | 149 | 0.0 | 0.0 | 0.00 | 0.98 | 0.98 | 98 | 1019.5 |
| 20260901141939 | 69 | 125 | 0.0 | 1.0 | 0.00 | 0.98 | 0.98 | 98 | 1019.6 |
| 20260901141438 | 69 | 119 | 0.0 | 1.0 | 0.24 | 0.98 | 0.98 | 98 | 1019.7 |
| 20260901140934 | 69 | 123 | 0.0 | 0.0 | 0.35 | 0.98 | 0.98 | 98 | 1020.0 |
| 20260901140431 | 69 | 92 | 0.0 | 1.0 | 0.05 | 0.93 | 0.93 | 98 | 1020.0 |
| 20260901135926 | 69 | 106 | 0.0 | 0.0 | 0.00 | 0.92 | 0.92 | 98 | 1019.9 |
| 20260901135421 | 69 | 119 | 0.0 | 0.0 | 0.00 | 0.92 | 0.92 | 98 | 1019.4 |
| 20260901134917 | 69 | 107 | 0.0 | 0.0 | 0.00 | 0.92 | 0.92 | 98 | 1019.5 |
| 20260901134413 | 69 | 106 | 0.0 | 0.0 | 0.00 | 0.92 | 0.92 | 98 | 1019.9 |
| 20260901133912 | 69 | 107 | 0.0 | 0.0 | 0.00 | 0.92 | 0.92 | 98 | 1019.5 |
| 20260901133406 | 69 | 117 | 0.0 | 0.0 | 0.00 | 0.92 | 0.92 | 98 | 1019.4 |
| 20260901132905 | 69 | 113 | 0.0 | 0.0 | 0.00 | 0.92 | 0.92 | 98 | 1019.5 |
| 20260901132400 | 69 | 113 | 0.0 | 0.0 | 0.00 | 0.92 | 0.92 | 98 | 1019.7 |
| 20260901131859 | 69 | 118 | 0.0 | 0.0 | 0.00 | 0.92 | 0.92 | 98 | 1019.6 |
| 20260901131358 | 69 | 113 | 0.0 | 0.0 | 0.00 | 0.92 | 0.92 | 98 | 1019.5 |
| 20260901130854 | 69 | 103 | 0.0 | 0.0 | 0.00 | 0.92 | 0.92 | 98 | 1019.4 |
| 20260901130348 | 69 | 113 | 0.0 | 0.0 | 0.00 | 0.92 | 0.92 | 98 | 1019.5 |
| 20260901125846 | 69 | 113 | 0.0 | 0.0 | 0.00 | 0.92 | 0.92 | 98 | 1019.5 |
| 20260901125345 | 69 | 121 | 0.0 | 0.0 | 0.00 | 0.92 | 0.92 | 98 | 1019.4 |
| 20260901124840 | 69 | 116 | 0.0 | 0.0 | 0.00 | 0.92 | 0.92 | 98 | 1019.3 |
| 20260901124336 | 69 | 119 | 0.0 | 0.0 | 0.00 | 0.92 | 0.92 | 98 | 1019.1 |
| 20260901123835 | 69 | 111 | 0.0 | 0.0 | 0.00 | 0.92 | 0.92 | 98 | 1019.7 |
| 20260901123330 | 69 | 124 | 0.0 | 0.0 | 0.00 | 0.92 | 0.92 | 98 | 1019.6 |
| 20260901122829 | 69 | 113 | 0.0 | 0.0 | 0.00 | 0.92 | 0.92 | 98 | 1019.6 |
| 20260901122324 | 69 | 119 | 0.0 | 0.0 | 0.00 | 0.92 | 0.92 | 98 | 1019.6 |
| 20260901121822 | 69 | 111 | 0.0 | 0.0 | 0.00 | 0.92 | 0.92 | 98 | 1019.5 |
| 20260901121318 | 68 | 115 | 0.0 | 0.0 | 0.00 | 0.92 | 0.92 | 98 | 1019.5 |
| 20260901120813 | 68 | 123 | 0.0 | 0.0 | 0.00 | 0.92 | 0.92 | 98 | 1019.6 |
| 20260901120307 | 68 | 113 | 0.0 | 0.0 | 0.00 | 0.92 | 0.92 | 98 | 1019.8 |
| 20260901115803 | 68 | 110 | 0.0 | 0.0 | 0.07 | 0.92 | 0.92 | 98 | 1019.8 |
| 20260901115258 | 68 | 114 | 0.0 | 0.0 | 0.07 | 0.92 | 0.92 | 98 | 1019.8 |
| 20260901114755 | 68 | 107 | 0.0 | 0.0 | 0.00 | 0.91 | 0.91 | 98 | 1019.9 |
| 20260901114250 | 68 | 107 | 0.0 | 0.0 | 0.00 | 0.91 | 0.91 | 98 | 1019.9 |
| 20260901113748 | 68 | 113 | 0.0 | 0.0 | 0.00 | 0.91 | 0.91 | 98 | 1019.7 |
| 20260901113243 | 68 | 95 | 0.0 | 0.0 | 0.00 | 0.91 | 0.91 | 98 | 1019.5 |
| 20260901112738 | 68 | 125 | 0.0 | 0.0 | 0.00 | 0.91 | 0.91 | 98 | 1019.3 |
| 20260901112237 | 68 | 125 | 0.0 | 0.0 | 0.00 | 0.91 | 0.91 | 98 | 1019.3 |
| 20260901111733 | 68 | 115 | 0.0 | 0.0 | 0.00 | 0.91 | 0.91 | 98 | 1019.3 |
| 20260901111232 | 68 | 121 | 0.0 | 0.0 | 0.00 | 0.91 | 0.91 | 98 | 1019.5 |
| 20260901110726 | 68 | 113 | 0.0 | 0.0 | 0.00 | 0.91 | 0.91 | 98 | 1019.9 |
| 20260901110221 | 68 | 113 | 0.0 | 0.0 | 0.00 | 0.91 | 0.91 | 98 | 1019.8 |
| 20260901105718 | 68 | 124 | 0.0 | 0.0 | 0.00 | 0.91 | 0.91 | 98 | 1019.7 |
| 20260901105217 | 68 | 113 | 0.0 | 0.0 | 0.00 | 0.91 | 0.91 | 98 | 1020.1 |
| 20260901104713 | 68 | 113 | 0.0 | 0.0 | 0.00 | 0.91 | 0.91 | 98 | 1019.8 |
| 20260901104209 | 68 | 120 | 0.0 | 0.0 | 0.00 | 0.91 | 0.91 | 98 | 1019.6 |
| 20260901103708 | 68 | 107 | 0.0 | 0.0 | 0.00 | 0.91 | 0.91 | 98 | 1019.8 |
| 20260901103203 | 68 | 113 | 0.0 | 0.0 | 0.00 | 0.91 | 0.91 | 98 | 1019.9 |
| 20260901102658 | 68 | 113 | 0.0 | 0.0 | 0.00 | 0.91 | 0.91 | 98 | 1019.8 |
| 20260901102157 | 68 | 100 | 0.0 | 0.0 | 0.00 | 0.91 | 0.91 | 98 | 1019.6 |
| 20260901101653 | 68 | 113 | 0.0 | 0.0 | 0.00 | 0.91 | 0.91 | 98 | 1019.5 |
| 20260901101153 | 68 | 107 | 0.0 | 0.0 | 0.00 | 0.91 | 0.91 | 98 | 1019.6 |
| 20260901100647 | 68 | 113 | 0.0 | 0.0 | 0.00 | 0.91 | 0.91 | 98 | 1019.2 |
| 20260901100142 | 68 | 123 | 0.0 | 0.0 | 0.00 | 0.91 | 0.91 | 98 | 1019.4 |
| 20260901095640 | 68 | 125 | 0.0 | 0.0 | 0.00 | 0.91 | 0.91 | 98 | 1019.5 |
| 20260901095138 | 68 | 102 | 0.0 | 0.0 | 0.00 | 0.91 | 0.91 | 98 | 1019.6 |
| 20260901094633 | 68 | 118 | 0.0 | 0.0 | 0.00 | 0.91 | 0.91 | 98 | 1019.6 |
| 20260901094133 | 68 | 117 | 0.0 | 0.0 | 0.00 | 0.91 | 0.91 | 97 | 1019.6 |
| 20260901093628 | 68 | 111 | 0.0 | 0.0 | 0.00 | 0.91 | 0.91 | 97 | 1019.5 |
| 20260901093127 | 67 | 119 | 0.0 | 0.0 | 0.00 | 0.91 | 0.91 | 97 | 1019.6 |
| 20260901092623 | 67 | 126 | 1.0 | 1.0 | 0.00 | 0.91 | 0.91 | 97 | 1019.7 |
| 20260901092119 | 67 | 127 | 1.0 | 1.0 | 0.00 | 0.91 | 0.91 | 97 | 1019.6 |
| 20260901091614 | 67 | 123 | 0.0 | 1.0 | 0.00 | 0.91 | 0.91 | 97 | 1019.6 |
| 20260901091109 | 67 | 119 | 0.0 | 0.0 | 0.00 | 0.91 | 0.91 | 97 | 1019.7 |
| 20260901090609 | 68 | 113 | 0.0 | 0.0 | 0.00 | 0.91 | 0.91 | 97 | 1019.4 |
| 20260901090105 | 67 | 115 | 0.0 | 0.0 | 0.00 | 0.91 | 0.91 | 97 | 1019.6 |
| 20260901085600 | 67 | 117 | 0.0 | 0.0 | 0.00 | 0.91 | 0.91 | 97 | 1019.8 |
| 20260901085056 | 67 | 113 | 0.0 | 0.0 | 0.00 | 0.91 | 0.91 | 97 | 1019.8 |
| 20260901084552 | 67 | 113 | 0.0 | 0.0 | 0.00 | 0.91 | 0.91 | 97 | 1019.7 |
| 20260901084048 | 67 | 112 | 0.0 | 0.0 | 0.00 | 0.91 | 0.91 | 97 | 1019.8 |
| 20260901083548 | 67 | 113 | 0.0 | 0.0 | 0.00 | 0.91 | 0.91 | 97 | 1019.9 |
| 20260901083046 | 67 | 120 | 0.0 | 0.0 | 0.00 | 0.91 | 0.91 | 97 | 1020.0 |
| 20260901082541 | 67 | 113 | 0.0 | 0.0 | 0.00 | 0.91 | 0.91 | 97 | 1019.9 |
| 20260901082037 | 67 | 113 | 0.0 | 0.0 | 0.00 | 0.91 | 0.91 | 97 | 1020.0 |
| 20260901081532 | 67 | 113 | 0.0 | 0.0 | 0.00 | 0.91 | 0.91 | 97 | 1020.0 |
| 20260901081026 | 67 | 117 | 0.0 | 0.0 | 0.00 | 0.91 | 0.91 | 97 | 1020.1 |
| 20260901080526 | 68 | 106 | 0.0 | 0.0 | 0.00 | 0.91 | 0.91 | 97 | 1020.3 |
| 20260901080020 | 67 | 95 | 0.0 | 0.0 | 0.00 | 0.91 | 0.91 | 97 | 1020.1 |
| 20260901075516 | 67 | 97 | 1.0 | 1.0 | 0.00 | 0.91 | 0.91 | 97 | 1020.0 |
| 20260901075015 | 67 | 110 | 0.0 | 1.0 | 0.00 | 0.91 | 0.91 | 97 | 1020.4 |
| 20260901074514 | 67 | 114 | 0.0 | 1.0 | 0.00 | 0.91 | 0.91 | 97 | 1020.2 |
| 20260901074010 | 67 | 81 | 0.0 | 1.0 | 0.00 | 0.91 | 0.91 | 97 | 1020.3 |
| 20260901073507 | 67 | 112 | 0.0 | 0.0 | 0.00 | 0.91 | 0.91 | 97 | 1020.3 |
| 20260901073001 | 67 | 117 | 0.0 | 1.0 | 0.00 | 0.91 | 0.91 | 97 | 1020.0 |
| 20260901072456 | 67 | 124 | 1.0 | 1.0 | 0.00 | 0.91 | 0.91 | 97 | 1020.1 |
| 20260901071951 | 67 | 117 | 0.0 | 0.0 | 0.00 | 0.91 | 0.91 | 97 | 1020.2 |
| 20260901071450 | 67 | 107 | 0.0 | 0.0 | 0.00 | 0.91 | 0.91 | 97 | 1020.1 |
| 20260901070949 | 67 | 112 | 0.0 | 0.0 | 0.00 | 0.91 | 0.91 | 97 | 1020.3 |
| 20260901070445 | 67 | 110 | 0.0 | 0.0 | 0.00 | 0.91 | 0.91 | 97 | 1020.4 |
| 20260901065943 | 67 | 107 | 0.0 | 0.0 | 0.00 | 0.91 | 0.91 | 97 | 1020.3 |
| 20260901065440 | 67 | 96 | 0.0 | 0.0 | 0.00 | 0.91 | 0.91 | 97 | 1020.3 |
| 20260901064934 | 67 | 104 | 0.0 | 0.0 | 0.00 | 0.91 | 0.91 | 97 | 1020.2 |
| 20260901064430 | 67 | 117 | 0.0 | 0.0 | 0.00 | 0.91 | 0.91 | 97 | 1020.2 |
| 20260901063928 | 67 | 115 | 0.0 | 0.0 | 0.00 | 0.91 | 0.91 | 97 | 1020.1 |
| 20260901063424 | 67 | 121 | 0.0 | 0.0 | 0.00 | 0.91 | 0.91 | 97 | 1020.3 |
| 20260901062920 | 67 | 117 | 0.0 | 1.0 | 0.05 | 0.91 | 0.91 | 97 | 1020.4 |
| 20260901062415 | 67 | 131 | 0.0 | 1.0 | 0.19 | 0.91 | 0.91 | 97 | 1020.8 |
| 20260901061911 | 68 | 136 | 1.0 | 2.0 | 0.42 | 0.90 | 0.90 | 96 | 1020.7 |
| 20260901061407 | 68 | 134 | 0.0 | 1.0 | 0.54 | 0.87 | 0.87 | 96 | 1020.7 |
| 20260901060901 | 68 | 110 | 0.0 | 1.0 | 0.47 | 0.82 | 0.82 | 96 | 1020.8 |
| 20260901060357 | 68 | 122 | 0.0 | 2.0 | 0.90 | 0.78 | 0.78 | 96 | 1020.7 |
| 20260901055856 | 68 | 110 | 1.0 | 2.0 | 1.02 | 0.73 | 0.73 | 96 | 1020.7 |
| 20260901055353 | 68 | 125 | 1.0 | 1.0 | 0.66 | 0.63 | 0.63 | 96 | 1020.6 |
| 20260901054849 | 68 | 142 | 1.0 | 1.0 | 0.19 | 0.55 | 0.55 | 96 | 1020.7 |
| 20260901054346 | 68 | 107 | 0.0 | 0.0 | 0.12 | 0.52 | 0.52 | 96 | 1020.6 |
| 20260901053842 | 68 | 112 | 0.0 | 1.0 | 0.24 | 0.52 | 0.52 | 96 | 1020.8 |
| 20260901053337 | 68 | 104 | 0.0 | 0.0 | 0.24 | 0.50 | 0.50 | 96 | 1020.7 |
| 20260901052833 | 68 | 116 | 0.0 | 0.0 | 0.28 | 0.47 | 0.47 | 96 | 1020.7 |
| 20260901052328 | 68 | 125 | 0.0 | 1.0 | 0.50 | 0.46 | 0.46 | 96 | 1020.9 |
| 20260901051826 | 68 | 119 | 0.0 | 1.0 | 0.35 | 0.41 | 0.41 | 96 | 1020.8 |
| 20260901051322 | 68 | 109 | 0.0 | 0.0 | 0.24 | 0.37 | 0.37 | 96 | 1021.0 |
| 20260901050817 | 68 | 120 | 0.0 | 0.0 | 0.50 | 0.35 | 0.35 | 96 | 1021.1 |
| 20260901050313 | 68 | 118 | 0.0 | 0.0 | 0.59 | 0.32 | 0.32 | 95 | 1021.1 |
| 20260901045808 | 68 | 119 | 0.0 | 0.0 | 0.42 | 0.26 | 0.26 | 95 | 1021.2 |
| 20260901045302 | 68 | 119 | 0.0 | 0.0 | 0.31 | 0.22 | 0.22 | 95 | 1021.2 |
| 20260901044757 | 68 | 117 | 0.0 | 0.0 | 0.24 | 0.19 | 0.19 | 95 | 1021.1 |
| 20260901044253 | 68 | 118 | 0.0 | 0.0 | 0.19 | 0.17 | 0.17 | 95 | 1021.5 |
| 20260901043743 | 68 | 117 | 0.0 | 0.0 | 0.12 | 0.15 | 0.15 | 95 | 1021.3 |
| 20260901043238 | 68 | 114 | 0.0 | 0.0 | 0.24 | 0.14 | 0.14 | 95 | 1021.3 |
| 20260901042733 | 68 | 114 | 0.0 | 0.0 | 0.35 | 0.13 | 0.13 | 95 | 1021.5 |
| 20260901042232 | 68 | 117 | 0.0 | 0.0 | 0.35 | 0.10 | 0.10 | 95 | 1021.3 |
| 20260901041729 | 68 | 114 | 0.0 | 0.0 | 0.38 | 0.07 | 0.07 | 94 | 1021.3 |
| 20260901041228 | 68 | 109 | 0.0 | 0.0 | 0.24 | 0.04 | 0.04 | 94 | 1021.5 |
| 20260901040723 | 68 | 110 | 0.0 | 0.0 | 0.05 | 0.01 | 0.01 | 94 | 1021.4 |
| 20260901040222 | 68 | 114 | 0.0 | 0.0 | 0.00 | 0.00 | 0.00 | 94 | 1021.1 |
| 20260901035721 | 68 | 114 | 0.0 | 0.0 | 0.00 | 0.01 | 0.01 | 94 | 1021.2 |
| 20260901035220 | 68 | 112 | 0.0 | 0.0 | 0.00 | 0.01 | 0.01 | 94 | 1021.1 |
| 20260901034719 | 68 | 113 | 0.0 | 0.0 | 0.00 | 0.01 | 0.01 | 94 | 1021.1 |
| 20260901034214 | 68 | 114 | 0.0 | 0.0 | 0.00 | 0.01 | 0.01 | 94 | 1021.5 |
| 20260901033714 | 68 | 116 | 0.0 | 0.0 | 0.00 | 0.01 | 0.01 | 94 | 1021.3 |
| 20260901033213 | 68 | 117 | 0.0 | 0.0 | 0.00 | 0.01 | 0.01 | 94 | 1021.3 |
| 20260901032713 | 68 | 116 | 0.0 | 0.0 | 0.00 | 0.01 | 0.01 | 94 | 1021.5 |
| 20260901032213 | 68 | 118 | 0.0 | 0.0 | 0.00 | 0.01 | 0.01 | 94 | 1021.3 |
| 20260901031708 | 68 | 116 | 0.0 | 0.0 | 0.00 | 0.01 | 0.01 | 94 | 1021.6 |
| 20260901031203 | 68 | 116 | 0.0 | 0.0 | 0.00 | 0.01 | 0.01 | 94 | 1021.5 |
| 20260901030658 | 68 | 122 | 0.0 | 0.0 | 0.00 | 0.01 | 0.01 | 94 | 1021.5 |
| 20260901030147 | 68 | 112 | 0.0 | 0.0 | 0.00 | 0.01 | 0.01 | 94 | 1021.6 |
| 20260901025641 | 68 | 124 | 0.0 | 0.0 | 0.00 | 0.01 | 0.01 | 94 | 1021.5 |
| 20260901025136 | 68 | 123 | 0.0 | 0.0 | 0.00 | 0.01 | 0.01 | 94 | 1021.7 |
| 20260901024630 | 68 | 117 | 0.0 | 0.0 | 0.00 | 0.01 | 0.01 | 94 | 1021.8 |
| 20260901024130 | 68 | 111 | 0.0 | 0.0 | 0.00 | 0.01 | 0.01 | 94 | 1022.1 |
| 20260901023629 | 69 | 115 | 0.0 | 0.0 | 0.00 | 0.01 | 0.01 | 94 | 1021.8 |
| 20260901023123 | 69 | 117 | 0.0 | 0.0 | 0.00 | 0.01 | 0.01 | 94 | 1021.8 |
| 20260901022619 | 69 | 118 | 0.0 | 0.0 | 0.00 | 0.01 | 0.01 | 94 | 1021.8 |
| 20260901022114 | 69 | 117 | 0.0 | 0.0 | 0.00 | 0.01 | 0.01 | 94 | 1021.8 |
| 20260901021610 | 69 | 116 | 0.0 | 0.0 | 0.00 | 0.01 | 0.01 | 94 | 1021.8 |
| 20260901021104 | 69 | 116 | 0.0 | 0.0 | 0.00 | 0.01 | 0.01 | 94 | 1021.9 |
| 20260901020600 | 69 | 130 | 0.0 | 0.0 | 0.00 | 0.01 | 0.01 | 94 | 1021.9 |
| 20260901020055 | 69 | 116 | 0.0 | 0.0 | 0.00 | 0.01 | 0.01 | 94 | 1022.0 |
| 20260901015551 | 69 | 115 | 0.0 | 0.0 | 0.00 | 0.01 | 0.01 | 94 | 1021.8 |
| 20260901015050 | 69 | 118 | 0.0 | 0.0 | 0.00 | 0.01 | 0.01 | 93 | 1021.9 |
| 20260901014546 | 69 | 117 | 0.0 | 0.0 | 0.00 | 0.01 | 0.01 | 93 | 1022.1 |
| 20260901014042 | 69 | 116 | 0.0 | 0.0 | 0.00 | 0.01 | 0.01 | 93 | 1022.0 |
| 20260901013537 | 69 | 116 | 0.0 | 0.0 | 0.00 | 0.01 | 0.01 | 93 | 1022.1 |
| 20260901013033 | 69 | 116 | 0.0 | 0.0 | 0.00 | 0.01 | 0.01 | 93 | 1021.9 |
| 20260901012532 | 69 | 115 | 0.0 | 0.0 | 0.00 | 0.01 | 0.01 | 93 | 1021.9 |
| 20260901012028 | 69 | 115 | 0.0 | 0.0 | 0.00 | 0.01 | 0.01 | 93 | 1022.1 |
| 20260901011525 | 69 | 118 | 0.0 | 0.0 | 0.00 | 0.01 | 0.01 | 93 | 1021.9 |
| 20260901011022 | 69 | 117 | 0.0 | 0.0 | 0.00 | 0.01 | 0.01 | 93 | 1022.2 |
| 20260901010517 | 69 | 116 | 0.0 | 0.0 | 0.00 | 0.01 | 0.01 | 93 | 1022.1 |
| 20260901010017 | 69 | 115 | 0.0 | 0.0 | 0.00 | 0.01 | 0.01 | 93 | 1022.1 |
| 20260901005516 | 69 | 116 | 0.0 | 0.0 | 0.00 | 0.01 | 0.01 | 93 | 1021.9 |
| 20260901005012 | 69 | 116 | 0.0 | 0.0 | 0.00 | 0.01 | 0.01 | 93 | 1021.9 |
| 20260901004511 | 69 | 117 | 0.0 | 0.0 | 0.00 | 0.01 | 0.01 | 93 | 1021.8 |
| 20260901004006 | 69 | 118 | 0.0 | 0.0 | 0.00 | 0.01 | 0.01 | 93 | 1021.9 |
| 20260901003501 | 69 | 112 | 0.0 | 0.0 | 0.00 | 0.01 | 0.01 | 93 | 1021.8 |
| 20260901002959 | 69 | 113 | 0.0 | 0.0 | 0.00 | 0.01 | 0.01 | 93 | 1021.8 |
| 20260901002454 | 69 | 115 | 0.0 | 0.0 | 0.00 | 0.01 | 0.01 | 93 | 1021.7 |
| 20260901001948 | 69 | 116 | 0.0 | 0.0 | 0.00 | 0.01 | 0.01 | 93 | 1021.8 |
| 20260901001444 | 69 | 122 | 0.0 | 0.0 | 0.00 | 0.01 | 0.01 | 93 | 1021.3 |
| 20260901000939 | 69 | 124 | 0.0 | 0.0 | 0.00 | 0.01 | 0.01 | 93 | 1021.5 |
| 20260901000435 | 69 | 116 | 0.0 | 0.0 | 0.00 | 0.01 | 0.01 | 93 | 1021.6 |
| 20260831235932 | 69 | 119 | 0.0 | 0.0 | 0.00 | 0.01 | 0.01 | 93 | 1021.7 |
| 20260831235429 | 69 | 117 | 0.0 | 0.0 | 0.00 | 0.01 | 0.01 | 92 | 1021.7 |
| 20260831234924 | 70 | 126 | 0.0 | 0.0 | 0.00 | 0.01 | 0.01 | 92 | 1021.7 |
| 20260831234423 | 70 | 119 | 0.0 | 0.0 | 0.00 | 0.01 | 0.01 | 92 | 1021.8 |
| 20260831233919 | 70 | 116 | 0.0 | 0.0 | 0.00 | 0.01 | 0.01 | 92 | 1021.9 |
| 20260831233414 | 70 | 116 | 0.0 | 0.0 | 0.00 | 0.01 | 0.01 | 92 | 1021.9 |
| 20260831232909 | 70 | 117 | 0.0 | 0.0 | 0.00 | 0.01 | 0.01 | 92 | 1021.9 |
| 20260831232405 | 70 | 116 | 0.0 | 0.0 | 0.00 | 0.01 | 0.01 | 92 | 1022.1 |
| 20260831231901 | 70 | 116 | 0.0 | 0.0 | 0.00 | 0.01 | 0.01 | 92 | 1021.9 |
| 20260831231357 | 70 | 118 | 0.0 | 0.0 | 0.00 | 0.01 | 0.01 | 92 | 1022.0 |
| 20260831230852 | 70 | 116 | 0.0 | 0.0 | 0.00 | 0.01 | 0.01 | 91 | 1021.8 |
| 20260831230347 | 70 | 110 | 0.0 | 0.0 | 0.00 | 0.01 | 0.01 | 91 | 1022.1 |
| 20260831225841 | 71 | 119 | 0.0 | 0.0 | 0.00 | 0.01 | 0.01 | 91 | 1022.2 |
| 20260831225336 | 71 | 114 | 0.0 | 0.0 | 0.00 | 0.01 | 0.01 | 91 | 1022.1 |
| 20260831224832 | 71 | 116 | 0.0 | 0.0 | 0.00 | 0.01 | 0.01 | 91 | 1022.0 |
| 20260831224326 | 71 | 119 | 0.0 | 0.0 | 0.00 | 0.01 | 0.01 | 91 | 1022.1 |
| 20260831223821 | 71 | 117 | 0.0 | 0.0 | 0.00 | 0.01 | 0.01 | 91 | 1022.1 |
| 20260831223318 | 70 | 114 | 0.0 | 0.0 | 0.00 | 0.01 | 0.01 | 91 | 1021.9 |
| 20260831222815 | 70 | 116 | 0.0 | 0.0 | 0.00 | 0.01 | 0.01 | 91 | 1022.1 |
| 20260831222310 | 70 | 112 | 0.0 | 0.0 | 0.00 | 0.01 | 0.01 | 91 | 1022.3 |
| 20260831221805 | 70 | 113 | 0.0 | 0.0 | 0.00 | 0.01 | 0.01 | 90 | 1022.3 |
| 20260831221300 | 71 | 120 | 0.0 | 0.0 | 0.00 | 0.01 | 0.01 | 90 | 1022.3 |
| 20260831220800 | 71 | 118 | 0.0 | 0.0 | 0.00 | 0.01 | 0.01 | 90 | 1022.3 |
| 20260831220255 | 71 | 117 | 0.0 | 0.0 | 0.00 | 0.01 | 0.01 | 90 | 1022.2 |
| 20260831215750 | 71 | 124 | 0.0 | 0.0 | 0.00 | 0.01 | 0.01 | 89 | 1022.1 |
| 20260831215246 | 71 | 118 | 0.0 | 0.0 | 0.00 | 0.01 | 0.01 | 89 | 1022.2 |
| 20260831214743 | 71 | 116 | 0.0 | 0.0 | 0.00 | 0.01 | 0.01 | 89 | 1022.3 |
| 20260831214240 | 71 | 120 | 0.0 | 0.0 | 0.00 | 0.01 | 0.01 | 88 | 1022.4 |
| 20260831213735 | 71 | 116 | 0.0 | 1.0 | 0.00 | 0.01 | 0.01 | 88 | 1022.3 |
| 20260831213232 | 71 | 136 | 1.0 | 1.0 | 0.00 | 0.01 | 0.01 | 88 | 1022.2 |
| 20260831212726 | 71 | 116 | 0.0 | 0.0 | 0.00 | 0.01 | 0.01 | 88 | 1022.2 |
| 20260831212223 | 71 | 119 | 0.0 | 1.0 | 0.00 | 0.01 | 0.01 | 88 | 1022.2 |
| 20260831211721 | 72 | 146 | 0.0 | 1.0 | 0.00 | 0.01 | 0.01 | 87 | 1022.2 |
| 20260831211216 | 72 | 127 | 1.0 | 1.0 | 0.00 | 0.01 | 0.01 | 86 | 1022.1 |
| 20260831210711 | 72 | 134 | 1.0 | 1.0 | 0.00 | 0.01 | 0.01 | 86 | 1022.0 |
| 20260831210207 | 73 | 121 | 0.0 | 0.0 | 0.00 | 0.01 | 0.01 | 86 | 1022.0 |
| 20260831205706 | 73 | 120 | 0.0 | 1.0 | 0.00 | 0.01 | 0.01 | 85 | 1022.1 |
| 20260831205202 | 73 | 121 | 0.0 | 0.0 | 0.00 | 0.01 | 0.01 | 84 | 1022.1 |
| 20260831204657 | 73 | 120 | 0.0 | 0.0 | 0.00 | 0.01 | 0.01 | 83 | 1022.4 |
| 20260831204155 | 73 | 119 | 0.0 | 0.0 | 0.00 | 0.01 | 0.01 | 82 | 1022.2 |
| 20260831203650 | 73 | 120 | 0.0 | 1.0 | 0.00 | 0.01 | 0.01 | 82 | 1022.0 |
| 20260831203149 | 74 | 124 | 0.0 | 1.0 | 0.00 | 0.01 | 0.01 | 83 | 1021.9 |
| 20260831202648 | 74 | 113 | 0.0 | 1.0 | 0.00 | 0.01 | 0.01 | 82 | 1022.1 |
| 20260831202143 | 75 | 122 | 0.0 | 0.0 | 0.00 | 0.01 | 0.01 | 81 | 1022.1 |
| 20260831201642 | 75 | 116 | 0.0 | 1.0 | 0.00 | 0.01 | 0.01 | 80 | 1022.3 |
| 20260831201137 | 75 | 116 | 0.0 | 0.0 | 0.00 | 0.01 | 0.01 | 79 | 1022.3 |
| 20260831200628 | 75 | 117 | 0.0 | 1.0 | 0.00 | 0.01 | 0.01 | 79 | 1022.4 |
| 20260831200127 | 75 | 117 | 0.0 | 1.0 | 0.00 | 0.01 | 0.01 | 80 | 1022.4 |
| 20260831195623 | 75 | 111 | 0.0 | 0.0 | 0.00 | 0.01 | 0.01 | 78 | 1022.3 |
| 20260831195118 | 75 | 117 | 0.0 | 0.0 | 0.00 | 0.01 | 0.01 | 77 | 1022.5 |
| 20260831194613 | 76 | 139 | 1.0 | 1.0 | 0.00 | 0.01 | 0.01 | 76 | 1022.4 |
| 20260831194108 | 76 | 115 | 0.0 | 1.0 | 0.00 | 0.01 | 0.01 | 76 | 1022.6 |
| 20260831193603 | 76 | 117 | 0.0 | 1.0 | 0.00 | 0.01 | 0.01 | 76 | 1022.5 |
| 20260831193103 | 76 | 123 | 0.0 | 0.0 | 0.00 | 0.01 | 0.01 | 75 | 1022.6 |
| 20260831192558 | 76 | 127 | 1.0 | 1.0 | 0.00 | 0.01 | 0.01 | 76 | 1022.6 |
| 20260831192054 | 77 | 128 | 1.0 | 1.0 | 0.00 | 0.01 | 0.01 | 74 | 1022.9 |
| 20260831191549 | 77 | 117 | 0.0 | 1.0 | 0.00 | 0.01 | 0.01 | 73 | 1022.7 |
| 20260831191045 | 77 | 121 | 0.0 | 1.0 | 0.00 | 0.01 | 0.01 | 73 | 1022.8 |
| 20260831190541 | 76 | 149 | 1.0 | 1.0 | 0.00 | 0.01 | 0.01 | 74 | 1022.9 |
| 20260831190039 | 77 | 147 | 2.0 | 2.0 | 0.00 | 0.01 | 0.01 | 72 | 1022.9 |
| 20260831185535 | 78 | 120 | 0.0 | 0.0 | 0.00 | 0.01 | 0.01 | 71 | 1023.1 |
| 20260831185031 | 78 | 85 | 0.0 | 1.0 | 0.00 | 0.01 | 0.01 | 69 | 1023.1 |
| 20260831184530 | 78 | 138 | 0.0 | 1.0 | 0.00 | 0.01 | 0.01 | 67 | 1023.1 |
| 20260831184025 | 78 | 120 | 0.0 | 0.0 | 0.00 | 0.01 | 0.01 | 67 | 1023.2 |
| 20260831183524 | 77 | 116 | 1.0 | 1.0 | 0.00 | 0.01 | 0.01 | 68 | 1023.3 |
| 20260831183019 | 78 | 168 | 1.0 | 2.0 | 0.00 | 0.01 | 0.01 | 67 | 1023.0 |
| 20260831182513 | 78 | 135 | 1.0 | 1.0 | 0.00 | 0.01 | 0.01 | 64 | 1023.1 |
| 20260831182009 | 78 | 94 | 0.0 | 1.0 | 0.00 | 0.01 | 0.01 | 64 | 1023.1 |
| 20260831181504 | 79 | 118 | 1.0 | 1.0 | 0.00 | 0.01 | 0.01 | 65 | 1023.2 |
| 20260831180959 | 79 | 177 | 1.0 | 2.0 | 0.00 | 0.01 | 0.01 | 65 | 1023.2 |
| 20260831180453 | 79 | 124 | 0.0 | 1.0 | 0.00 | 0.01 | 0.01 | 66 | 1023.2 |
| 20260831175952 | 79 | 105 | 2.0 | 2.0 | 0.00 | 0.01 | 0.01 | 64 | 1023.6 |
| 20260831175449 | 78 | 137 | 0.0 | 1.0 | 0.00 | 0.01 | 0.01 | 65 | 1023.5 |
| 20260831174944 | 78 | 113 | 1.0 | 1.0 | 0.00 | 0.01 | 0.01 | 64 | 1023.5 |
| 20260831174440 | 77 | 125 | 0.0 | 2.0 | 0.00 | 0.01 | 0.01 | 71 | 1023.9 |
| 20260831173939 | 78 | 119 | 1.0 | 1.0 | 0.00 | 0.01 | 0.01 | 68 | 1023.8 |
| 20260831173438 | 79 | 66 | 1.0 | 2.0 | 0.00 | 0.01 | 0.01 | 64 | 1023.6 |
| 20260831172934 | 78 | 149 | 1.0 | 1.0 | 0.00 | 0.01 | 0.01 | 64 | 1023.6 |
| 20260831172429 | 79 | 82 | 1.0 | 2.0 | 0.00 | 0.01 | 0.01 | 65 | 1023.4 |
| 20260831171923 | 78 | 101 | 1.0 | 2.0 | 0.00 | 0.01 | 0.01 | 65 | 1023.8 |
| 20260831171420 | 78 | 216 | 2.0 | 3.0 | 0.00 | 0.01 | 0.01 | 65 | 1023.6 |
| 20260831170916 | 78 | 231 | 1.0 | 2.0 | 0.00 | 0.01 | 0.01 | 67 | 1023.6 |
| 20260831170412 | 78 | 246 | 1.0 | 2.0 | 0.00 | 0.01 | 0.01 | 64 | 1023.4 |
| 20260831165908 | 78 | 147 | 1.0 | 1.0 | 0.00 | 0.01 | 0.01 | 67 | 1023.5 |
| 20260831165404 | 77 | 166 | 1.0 | 1.0 | 0.00 | 0.01 | 0.01 | 67 | 1023.5 |
| 20260831164901 | 77 | 143 | 0.0 | 2.0 | 0.00 | 0.01 | 0.01 | 67 | 1023.9 |
| 20260831164357 | 77 | 124 | 1.0 | 2.0 | 0.00 | 0.01 | 0.01 | 68 | 1023.8 |
| 20260831163852 | 77 | 122 | 1.0 | 2.0 | 0.00 | 0.01 | 0.01 | 68 | 1023.5 |
| 20260831163347 | 76 | 120 | 1.0 | 2.0 | 0.00 | 0.01 | 0.01 | 69 | 1023.8 |
| 20260831162846 | 76 | 129 | 1.0 | 2.0 | 0.00 | 0.01 | 0.01 | 70 | 1024.0 |
| 20260831162341 | 77 | 145 | 1.0 | 2.0 | 0.00 | 0.01 | 0.01 | 70 | 1024.0 |
| 20260831161840 | 77 | 112 | 1.0 | 1.0 | 0.00 | 0.01 | 0.01 | 68 | 1023.9 |
| 20260831161336 | 76 | 102 | 1.0 | 2.0 | 0.00 | 0.01 | 0.01 | 68 | 1023.8 |
| 20260831160831 | 76 | 156 | 1.0 | 2.0 | 0.00 | 0.01 | 0.01 | 68 | 1024.0 |
| 20260831160326 | 76 | 117 | 0.0 | 2.0 | 0.00 | 0.01 | 0.01 | 67 | 1023.8 |
| 20260831155821 | 76 | 107 | 0.0 | 2.0 | 0.00 | 0.01 | 0.01 | 68 | 1024.0 |